User: anonymous   Login
Location: Fort Wayne
(41.1310°N, 85.1290°W)
Time: 21:47:47
(UTC-04:00)
Language:

COSMOS 2428 - Orbit

View from above orbital plane
View from above orbital plane
View from above satellite
View from above satellite

Ground track
Ground track

The orbit data is extracted from the following two-line orbital elements,

1 31792U 07029A   15086.32311266  .00000085  00000-0  71553-4 0  9992
2 31792 070.9848 316.5626 0005322 068.0437 055.3293 14.12542060399293
Epoch (UTC): 27 March 2015 07:45:16
Eccentricity: 0.0005322
inclination: 70.9848°
perigee height: 847 km
apogee height: 854 km
right ascension of ascending node: 316.5626°
argument of perigee: 68.0437°
revolutions per day: 14.12542060
mean anomaly at epoch: 55.3293°
orbit number at epoch: 39929

The dashed part of the orbit path shows where the satellite is in the earth's shadow,  

DLR